[[{"header":{"parameterUnit":"m.s-1","parameterCategory":1,"la1":30.2991,"la2":30.254,"lo1":-89.0895,"lo2":-89.0444,"dy":0.0017,"dx":0.0017,"nx":28,"ny":28,"refTime":"2024-03-10T21:00:00:Z","depth":0,"parameterNumber":2,"parameterNumberName":"U-component_of_WINDS"},"data":[0,0,0,0,0,0,0,0,0,0,0,0,0,0,0,0,0,0,0,0,0,0,0,0,0,0,0,0,0,0,0,0,0,0,0,0,0,0,0,0,0,0,0,0,0,0,0,0,0,0,0,0,0,0,0,0,0,0,-2.815,-2.815,0,-2.8087,-2.8086,-2.8085,-2.7966,-2.7963,-2.7961,-2.7959,-2.7897,-2.7897,-2.7898,0,0,0,0,0,0,0,0,0,0,0,0,0,-2.8173,-2.8174,-2.815,-2.815,-2.8149,-2.8087,-2.8086,-2.8085,-2.7966,-2.7963,-2.796,-2.7958,-2.7897,-2.7897,-2.7898,0,0,0,0,0,0,0,0,0,0,0,0,0,-2.8142,-2.8174,-2.8151,-2.8082,-2.8075,-2.8087,-2.8086,-2.8085,-2.7967,-2.7963,-2.796,-2.7956,-2.7897,-2.7897,-2.7898,-2.7973,0,0,-2.79,-2.7901,0,0,0,0,0,0,0,0,-2.8144,-2.8141,-2.8093,-2.8087,-2.8079,-2.803,-2.8071,-2.8047,-2.7968,-2.8008,-2.7959,-2.7955,-2.7944,-2.7941,-2.7937,-2.797,-2.7967,-2.7901,-2.7901,-2.7901,-2.7902,0,0,0,0,0,0,0,-2.8146,-2.8143,-2.8125,-2.8092,-2.8084,-2.8056,-2.8047,-2.8066,-2.7997,-2.8004,-2.7995,-2.7989,-2.794,-2.7936,-2.7935,-2.7966,-2.7901,-2.7901,-2.7902,-2.7902,-2.8058,-2.8062,0,0,0,0,0,0,-2.8158,-2.8146,-2.8127,-2.8123,-2.8104,-2.8058,-2.8049,-2.805,-2.7996,-2.7984,-2.7992,-2.7984,-2.7937,-2.7934,-2.7932,-2.8016,-2.7901,-2.7902,-2.7903,-2.8055,-2.8059,-2.8063,0,0,0,0,0,0,-2.8159,-2.8157,-2.813,-2.8132,-2.8127,-2.8061,-2.8063,-2.805,-2.8046,-2.7987,-2.7974,-2.8001,-2.7934,-2.7931,-2.7963,-2.8012,-2.7902,-2.7903,-2.805,-2.8056,-2.8061,-2.8185,0,0,0,0,0,0,-2.816,-2.8158,-2.8185,-2.8134,-2.8127,-2.8162,-2.8066,-2.8052,-2.8048,-2.8036,-2.7992,-2.7981,-2.7931,-2.7963,-2.7964,-2.8011,-2.7904,-2.8046,-2.8053,-2.8059,-2.8176,-2.8194,-2.8209,0,0,0,0,0,-2.8161,-2.8223,-2.8187,-2.8185,-2.8158,-2.8164,-2.8161,-2.81,-2.8052,-2.8079,-2.8041,-2.7983,-2.8007,-2.7967,-2.7968,-2.8016,-2.8042,-2.8051,-2.8059,-2.8169,-2.8191,-2.8209,0,0,0,0,0,0,-2.8282,-2.8215,-2.8174,-2.8221,-2.8199,-2.8144,-2.8176,-2.8125,-2.8118,-2.8107,-2.8034,-2.8025,-2.8068,-2.8045,-2.8002,-2.8086,-2.8016,-2.8024,-2.8099,-2.8119,-2.8135,-2.814,-2.7904,0,0,0,0,0,-2.8314,-2.8324,-2.8265,-2.8311,-2.8303,-2.8242,-2.8242,-2.8198,-2.8173,-2.8163,-2.8128,-2.8107,-2.811,-2.8113,-2.8112,-2.8173,-2.8162,-2.8206,-2.8223,-2.8237,-2.8245,-2.8276,-2.8296,-2.809,-2.809,-2.809,0,0,-2.8381,-2.8345,-2.8355,-2.8335,-2.8313,-2.8326,-2.8235,-2.8252,-2.8261,-2.8166,-2.8194,-2.8168,-2.814,-2.8187,-2.8206,-2.817,-2.83,-2.8247,-2.8259,-2.8259,-2.8287,-2.8306,-2.8324,-2.8096,-2.8095,-2.8094,0,0,-2.8508,-2.8482,-2.8518,-2.8498,-2.8465,-2.8425,-2.8434,-2.8387,-2.8366,-2.8393,-2.8323,-2.8333,-2.8339,-2.8323,-2.8315,-2.8438,-2.8385,-2.844,-2.8526,-2.8558,-2.8574,-2.8588,-2.8633,-2.8649,-2.8449,-2.8449,-2.8449,0,-2.8594,-2.8609,-2.8543,-2.8565,-2.8558,-2.8473,-2.851,-2.8494,-2.8465,-2.8463,-2.8422,-2.8429,-2.8404,-2.8446,-2.8477,-2.8473,-2.8482,-2.8444,-2.8577,-2.859,-2.8602,-2.8644,-2.8661,-2.8456,-2.8455,-2.8455,-2.8454,0,-2.8718,-2.8729,-2.8763,-2.8735,-2.8733,-2.8762,-2.8702,-2.8708,-2.8665,-2.8629,-2.8659,-2.8627,-2.8618,-2.8625,-2.8583,-2.8662,-2.8641,-2.859,-2.8517,-2.863,-2.8668,-2.8683,-2.8466,-2.8464,-2.8462,-2.846,0,0,-2.8918,-2.8854,-2.8867,-2.8854,-2.8813,-2.8822,-2.8849,-2.8839,-2.8846,-2.8829,-2.8851,-2.8859,-2.8811,-2.8803,-2.8759,-2.8786,-2.8887,-2.8732,-2.873,-2.8762,-2.8974,-2.9012,-2.9032,-2.8852,-2.8855,-2.8857,-2.8976,0,-2.9036,-2.9076,-2.9018,-2.9072,-2.9082,-2.9003,-2.9026,-2.9005,-2.8973,-2.8978,-2.8943,-2.895,-2.8887,-2.8882,-2.8906,-2.887,-2.8929,-2.886,-2.8872,-2.8873,-2.8881,-2.9051,-2.9092,-2.9206,-2.899,-2.8993,-2.8995,0,-2.9178,-2.9167,-2.9222,-2.9179,-2.9181,-2.9203,-2.9191,-2.9197,-2.9172,-2.9147,-2.9139,-2.9086,-2.911,-2.9041,-2.9075,-2.903,-2.9032,-2.9015,-2.9018,-2.9017,-2.894,-2.9055,-2.924,-2.9258,-2.9017,-2.9015,-2.9014,0,-2.9319,-2.9318,-2.9351,-2.9342,-2.9293,-2.931,-2.9291,-2.9262,-2.9261,-2.9251,-2.925,-2.9244,-2.9241,-2.9238,-2.9186,-2.914,-2.9227,-2.9153,-2.9207,-2.9209,-2.9228,-2.9228,-2.9418,-2.923,-2.923,-2.923,-2.9229,0,-2.9457,-2.9493,-2.9414,-2.9434,-2.9473,-2.9408,-2.9449,-2.9422,-2.9397,-2.9412,-2.9343,-2.9359,-2.9289,-2.9298,-2.9257,-2.9292,-2.9291,-2.9273,-2.9261,-2.9279,-2.9281,-2.9278,-2.9269,-2.9234,-2.9233,-2.9232,-2.9232,0,-2.962,-2.9568,-2.9598,-2.9549,-2.9538,-2.9569,-2.9528,-2.9546,-2.951,-2.9529,-2.953,-2.9475,-2.9481,-2.9429,-2.9426,-2.9399,-2.9454,-2.9429,-2.9462,-2.9454,-2.9512,-2.9507,-2.9706,-2.9729,-2.9528,-2.953,-2.9531,0,-2.9711,-2.9737,-2.9691,-2.9695,-2.9679,-2.9687,-2.9686,-2.9623,-2.9625,-2.9599,-2.962,-2.9621,-2.9619,-2.9634,-2.9594,-2.9592,-2.9567,-2.9637,-2.9566,-2.9583,-2.9568,-2.9567,-2.957,-2.9651,-2.9654,-2.9656,-2.9658,0,-2.9878,-2.9851,-2.9851,-2.9843,-2.9843,-2.9833,-2.9819,-2.9827,-2.976,-2.9765,-2.9771,-2.9769,-2.9766,-2.9769,-2.9759,-2.9741,-2.9689,-2.968,-2.9693,-2.971,-2.9729,-2.972,-2.9502,-2.9676,-2.9674,-2.9673,-2.9672,-2.9671,-3.0007,-3.0027,-2.9998,-3.0001,-2.9984,-2.9973,-2.9988,-2.9954,-2.9957,-2.9949,-2.9913,-2.9926,-2.9902,-2.9883,-2.987,-2.988,-2.9846,-2.9865,-2.9869,-2.9875,-2.9885,-2.9728,-2.9878,-2.9878,-2.9877,-2.9876,-2.9876,0,-3.0171,-3.0149,-3.0152,-3.0134,-3.0137,-3.0087,-3.007,-3.0076,-3.0088,-3.0069,-3.0068,-3.0076,-3.0078,-3.004,-3.0037,-3.0053,-3.003,-3.0055,-3.0053,-3.005,-2.9915,-2.9904,-3.0074,-3.0074,-3.0074,-3.0074,-3.0074,-3.0074,-3.0256,-3.0288,-3.0258,-3.0282,-3.0259,-3.027,-3.0265,-3.0255,-3.024,-3.0251,-3.0253,-3.0227,-3.0201,-3.0197,-3.0198,-3.0186,-3.0189,-3.0223,-3.0204,-3.0078,-3.0059,-3.0041,-3.003,-3.0224,-3.0224,-3.0337,-3.0338,-3.0339]},{"header":{"parameterUnit":"m.s-1","parameterCategory":1,"la1":30.2991,"la2":30.254,"lo1":-89.0895,"lo2":-89.0444,"dy":0.0017,"dx":0.0017,"nx":28,"ny":28,"refTime":"2024-03-10T21:00:00:Z","depth":0,"parameterNumber":3,"parameterNumberName":"V-component_of_WINDS"},"data":[0,0,0,0,0,0,0,0,0,0,0,0,0,0,0,0,0,0,0,0,0,0,0,0,0,0,0,0,0,0,0,0,0,0,0,0,0,0,0,0,0,0,0,0,0,0,0,0,0,0,0,0,0,0,0,0,0,0,1.2476,1.2476,0,1.2469,1.2469,1.2469,1.2512,1.2513,1.2515,1.2516,1.2504,1.2503,1.2501,0,0,0,0,0,0,0,0,0,0,0,0,0,1.2524,1.2523,1.2476,1.2476,1.2476,1.2469,1.2469,1.2469,1.2512,1.2513,1.2515,1.2516,1.2505,1.2503,1.2501,0,0,0,0,0,0,0,0,0,0,0,0,0,1.2508,1.2522,1.2476,1.2497,1.2498,1.2469,1.2469,1.2469,1.2512,1.2513,1.2515,1.2517,1.2505,1.2503,1.2501,1.245,0,0,1.2494,1.2493,0,0,0,0,0,0,0,0,1.2509,1.2506,1.2494,1.2495,1.2497,1.2493,1.2482,1.2463,1.2511,1.2506,1.2516,1.2518,1.2499,1.2497,1.2492,1.245,1.2449,1.2494,1.2493,1.2492,1.2491,0,0,0,0,0,0,0,1.251,1.2507,1.2473,1.2493,1.2495,1.2505,1.2505,1.2478,1.2492,1.2507,1.251,1.2509,1.25,1.2494,1.2492,1.2449,1.2494,1.2492,1.2491,1.249,1.2366,1.2364,0,0,0,0,0,0,1.2509,1.2508,1.2473,1.2473,1.2508,1.2503,1.2503,1.2493,1.2493,1.2494,1.2507,1.2511,1.2497,1.2494,1.2492,1.2432,1.2492,1.249,1.2489,1.2368,1.2365,1.2363,0,0,0,0,0,0,1.251,1.2505,1.2474,1.2491,1.2488,1.25,1.2488,1.2491,1.2485,1.2493,1.2495,1.2498,1.2498,1.2495,1.2461,1.2432,1.2489,1.2487,1.237,1.2367,1.2364,1.2313,0,0,0,0,0,0,1.2511,1.2506,1.2487,1.249,1.2487,1.2443,1.2487,1.249,1.2482,1.2487,1.2485,1.2487,1.2499,1.2464,1.2459,1.243,1.2485,1.2373,1.2369,1.2365,1.2317,1.2308,1.2301,0,0,0,0,0,1.2513,1.2472,1.2486,1.2481,1.2464,1.2442,1.2439,1.2456,1.2479,1.246,1.2466,1.2487,1.2437,1.246,1.2454,1.2425,1.2374,1.237,1.2366,1.232,1.231,1.2301,0,0,0,0,0,0,1.2462,1.2472,1.2488,1.2447,1.2444,1.2449,1.2425,1.2444,1.2432,1.2437,1.2457,1.2456,1.2419,1.2419,1.2444,1.2376,1.241,1.2404,1.2377,1.2367,1.2359,1.2359,1.2483,0,0,0,0,0,1.2447,1.2429,1.2439,1.2402,1.2399,1.2413,1.2404,1.2417,1.2413,1.2411,1.2414,1.2408,1.2392,1.238,1.2365,1.2318,1.2318,1.2295,1.2287,1.2281,1.2274,1.225,1.2239,1.2348,1.2349,1.2349,0,0,1.2414,1.2417,1.2405,1.2392,1.239,1.237,1.2411,1.2388,1.2373,1.2407,1.2375,1.2377,1.2373,1.2332,1.2314,1.2331,1.2245,1.2275,1.2269,1.2267,1.2244,1.2233,1.2224,1.2345,1.2346,1.2346,0,0,1.2344,1.2345,1.2314,1.2313,1.2311,1.2321,1.2313,1.2316,1.2319,1.2289,1.2314,1.2296,1.2267,1.2262,1.2256,1.2187,1.2205,1.2181,1.2138,1.2114,1.2105,1.2097,1.2071,1.2062,1.2176,1.2176,1.2175,0,1.2302,1.2275,1.2296,1.2272,1.2265,1.2298,1.2266,1.2263,1.2256,1.225,1.227,1.2234,1.2233,1.2192,1.2175,1.2169,1.2161,1.218,1.2105,1.2098,1.2091,1.2066,1.2056,1.2173,1.2173,1.2173,1.2173,0,1.2224,1.2204,1.218,1.2173,1.2164,1.2136,1.2153,1.2141,1.2155,1.2163,1.2131,1.2131,1.2117,1.2109,1.2122,1.2069,1.208,1.2102,1.2135,1.2077,1.2054,1.2045,1.2168,1.2169,1.217,1.2171,0,0,1.2119,1.2127,1.2117,1.2115,1.2116,1.2101,1.2075,1.2063,1.2051,1.2046,1.2024,1.1999,1.202,1.2013,1.2027,1.2006,1.1949,1.203,1.2031,1.2014,1.189,1.1872,1.1861,1.1963,1.1961,1.196,1.189,0,1.2049,1.2006,1.2025,1.1979,1.1961,1.1993,1.197,1.1968,1.1974,1.1959,1.1966,1.1948,1.1978,1.1974,1.1955,1.196,1.1924,1.1966,1.1941,1.1939,1.1939,1.1849,1.183,1.1764,1.1881,1.188,1.1879,0,1.1962,1.1954,1.1907,1.1912,1.1905,1.1885,1.1875,1.1861,1.1859,1.1866,1.1859,1.1878,1.1852,1.1887,1.1851,1.1878,1.187,1.1871,1.1869,1.1866,1.1904,1.1842,1.1743,1.1733,1.1865,1.1866,1.1867,0,1.1888,1.1867,1.1836,1.1833,1.1839,1.1823,1.1825,1.1825,1.1817,1.1809,1.1803,1.1792,1.1785,1.1775,1.179,1.1814,1.1751,1.1788,1.1754,1.1753,1.1737,1.1738,1.1634,1.1735,1.1735,1.1735,1.1735,0,1.1807,1.1777,1.1803,1.1783,1.175,1.1773,1.1739,1.1744,1.1744,1.1726,1.1753,1.1735,1.1756,1.174,1.1752,1.1719,1.1716,1.172,1.1723,1.1716,1.1716,1.1709,1.1713,1.1732,1.1733,1.1734,1.1734,0,1.1719,1.1735,1.1703,1.1712,1.1714,1.1689,1.1696,1.1678,1.1688,1.1664,1.166,1.1674,1.1657,1.1672,1.1654,1.1662,1.1619,1.1629,1.1619,1.1622,1.1587,1.1589,1.1474,1.146,1.1571,1.157,1.1569,0,1.1665,1.1643,1.165,1.164,1.1641,1.1624,1.1617,1.1639,1.1629,1.1627,1.1609,1.1594,1.1583,1.1553,1.1561,1.1548,1.1557,1.1518,1.1555,1.1549,1.1555,1.1555,1.1553,1.1509,1.1508,1.1507,1.1506,0,1.1568,1.1577,1.1566,1.1557,1.1547,1.1541,1.1537,1.1527,1.155,1.1538,1.1521,1.1513,1.1496,1.1481,1.1471,1.1471,1.1492,1.1495,1.1486,1.1478,1.1473,1.1474,1.1597,1.1497,1.1498,1.1499,1.1499,1.1499,1.1494,1.1475,1.1478,1.1464,1.1464,1.146,1.1444,1.1452,1.1439,1.1428,1.1442,1.1421,1.1421,1.141,1.1408,1.1391,1.1408,1.1395,1.1392,1.1388,1.1382,1.1478,1.139,1.139,1.139,1.1391,1.1391,0,1.1397,1.1401,1.1388,1.1382,1.1371,1.1395,1.1392,1.138,1.1362,1.1361,1.1351,1.1331,1.1317,1.1325,1.1312,1.1297,1.1306,1.1293,1.1293,1.1293,1.1369,1.1377,1.1286,1.1286,1.1286,1.1286,1.1286,1.1286,1.1345,1.1315,1.1325,1.1295,1.1299,1.128,1.1276,1.1272,1.1272,1.1249,1.1238,1.1244,1.1247,1.1235,1.1222,1.1225,1.1218,1.1201,1.1207,1.1277,1.1288,1.1297,1.1305,1.12,1.12,1.1132,1.1131,1.1131]}]]